{"data":{"norad_id":62661,"epoch":"2026-05-25T02:54:14.412096Z","epoch_age_seconds":61824,"freshness":"FRESH","line1":"1 62661U 25009BE  26145.12100014  .00009857  00000+0  34894-3 0  9993","line2":"2 62661  97.4007 227.2428 0005138  62.9345 297.2419 15.29329171133004","mean_motion":15.29329171,"eccentricity":0.0005138,"inclination_deg":97.4007,"raan_deg":227.2428,"arg_perigee_deg":62.9345,"mean_anomaly_deg":297.2419,"bstar":0.00034894,"rev_number":13300,"period_min":94.158931072923,"perigee_km":474.29385269575,"apogee_km":481.33903045231,"semimajor_km":6855.953441574,"source":"CELESTRAK","updated_at":"2026-05-25T13:38:13.341360Z"}}